Regional Weather Roundup
Issued by NWS Albany, NY

Home | Current Version | Previous Version | Text Only | Print | Product List | Glossary On
Versions: 1 2 3 4 5 6 7 8 9 10 11 12 13 14 15 16 17 18 19 20 21 22 23 24 25 26 27 28 29 30 31 32 33 34 35 36 37 38 39 40 41 42 43 44 45 46 47 48 49 50
000
ASUS41 KALY 042310
RWRALY

NEW YORK STATE HOURLY WEATHER ROUNDUP
NATIONAL WEATHER SERVICE ALBANY NY
600 PM EST SUN DEC 04 2016

NOTE: "FAIR" INDICATES FEW OR NO CLOUDS BELOW 12,000 FEET WITH NO
SIGNIFICANT WEATHER AND/OR NO OBSTRUCTIONS TO VISIBILITY.

NYZ032-033-038>043-046>054-057>066-NYZ062>081-082-084-050000-
EAST


CITY           SKY/WX    TMP DP  RH WIND       PRES   REMARKS
ALBANY         PTCLDY    29  19  66 CALM      30.23S
GLENS FALLS    CLEAR     27  20  75 CALM      30.22S
POUGHKEEPSIE   CLOUDY    32  21  64 NE5       30.21R WCI  27
NEWBURGH       MOCLDY    34  23  64 E8        30.20R WCI  27
MONTGOMERY     PTCLDY    34  23  64 NE5       30.19R WCI  30
WHITE PLAINS   CLOUDY    37  20  50 NE3       30.18R
ISLIP          MOCLDY    35  23  61 N6        30.19S WCI  30
NEW YORK CITY  MOCLDY    45  23  42 NE8       30.20R
CENTRAL PARK   PTCLDY    42  21  43 NE3       30.21S
$$

NYZ005>009-017-018-044>046-055-056-050000-
CENTRAL


CITY           SKY/WX    TMP DP  RH WIND       PRES   REMARKS
FULTON         PTCLDY    30  22  72 E5        30.16F WCI  25
SYRACUSE       CLOUDY    29  22  75 E8        30.16F WCI  21
ROME           CLOUDY    28  22  78 E8        30.20F WCI  20
ELMIRA         MOCLDY    36  25  64 NE6       30.13S WCI  31
BINGHAMTON     CLOUDY    30  22  72 NE3       30.10F
MONTICELLO     CLOUDY    32  19  59 CALM      30.14F
$$

NYZ026>034-041>043-087-050000-
NORTH


CITY           SKY/WX    TMP DP  RH WIND       PRES   REMARKS
WATERTOWN      CLEAR     24  19  81 E6        30.19F WCI  17
FORT DRUM      NOT AVBL
OGDENSBURG     MOCLDY    29  22  74 CALM      30.22F
MASSENA        CLEAR     25  19  78 CALM      30.25R
SARANAC LAKE   CLOUDY    22  17  81 SW5       30.14S WCI  16
PLATTSBURGH    CLOUDY    31  20  63 W5        30.23S WCI  26
$$

NYZ001>004-010>016-019>021-085-050000-
WEST


CITY           SKY/WX    TMP DP  RH WIND       PRES   REMARKS
NIAGARA FALLS  CLOUDY    38  27  64 E7        30.09F WCI  33
BUFFALO        CLOUDY    38  26  62 E9        30.09F WCI  31
DUNKIRK        MOCLDY    38  28  67 E7        30.06F WCI  33
JAMESTOWN      MOCLDY    34  25  69 SE10      30.02F WCI  26
WELLSVILLE     CLOUDY    34  24  67 SE9       30.05F WCI  27
ROCHESTER      CLOUDY    36  27  69 E7        30.14S WCI  30
PENN YAN       MOCLDY    34  25  69 E3        30.14S
$$

             KEY
       WCI = WIND CHILL INDEX
       VSB = VISIBILITY
       HX  = HEAT INDEX
$$



USA.gov is the U.S. government's official web portal to all federal, state and local government web resources and services.